Regional Weather Roundup
Issued by NWS Newport/Morehead, NC

Current Version | Previous Version | Graphics & Text | Print | Product List | Glossary On
Versions: 1 2 3 4 5 6 7 8 9 10 11 12 13 14 15 16 17 18 19 20 21 22 23 24 25 26 27 28 29 30 31 32 33 34 35 36 37 38 39 40 41 42 43 44 45 46
000 ASUS42 KMHX 200414 RWRMHX WEATHER ROUNDUP FOR EASTERN NORTH CAROLINA NATIONAL WEATHER SERVICE NEWPORT/MOREHEAD CITY NC 1200 AM EDT SUN AUG 20 2017 NOTE: "FAIR" INDICATES FEW OR NO CLOUDS BELOW 12,000 FEET WITH NO SIGNIFICANT WEATHER AND/OR OBSTRUCTIONS TO VISIBILITY NCZ015>017-031-032-045>047-102-103-200500- NORTH COAST CITY SKY/WX TMP DP RH WIND PRES REMARKS EDENTON CLEAR 78 74 86 CALM 29.99R ELIZABETH CITY CLEAR 75 75 100 SW3 29.98R KITTY HAWK CLEAR 77 75 93 CALM 29.97S MANTEO CLEAR 78 75 92 W5 29.99S $$ NCZ045>047-081-094-103-104-200500- CENTRAL COAST CITY SKY/WX TMP DP RH WIND PRES REMARKS FRISCO PTCLDY 79 78 97 SW8 29.98F $$ NCZ095-097-098-100-101-200500- SOUTHERN COAST CITY SKY/WX TMP DP RH WIND PRES REMARKS BEAUFORT CLEAR 79 78 97 CALM 30.00R CEDAR ISLAND NOT AVBL JACKSONVILLE CLEAR 74 74 100 CALM 29.99R PINEY ISLAND CLEAR N/A N/A N/A S5 29.99R WILMINGTON PTCLDY 76 75 97 E3 29.99R $$ NCZ011>013-027>030-043-044-078>080-089-090>093-098-200500- COASTAL PLAIN CITY SKY/WX TMP DP RH WIND PRES REMARKS AHOSKIE N/A 74 74 99 CALM 29.98S CLINTON CLEAR 74 74 100 CALM 29.99S ELIZABETHTOWN NOT AVBL GOLDSBORO CLEAR 75 75 100 CALM 29.98S GREENVILLE CLEAR 73 73 100 CALM 30.00S HAVELOCK CLEAR 74 73 97 S5 30.00R KENANSVILLE CLEAR 72 72 100 CALM 30.00R KINSTON CLEAR 73 72 96 S3 30.00R NEW BERN CLEAR 73 73 100 CALM 30.01R FOG RICHLANDS PTCLDY 73 73 100 CALM 30.00R FOG ROCKY MOUNT CLEAR 74 74 100 CALM 30.00R WASHINGTON CLEAR 74 73 95 SW5 29.99S WHITEVILLE PTCLDY 75 74 97 CALM 29.98S $$ AMZ130-135-150-152-154-156-158-170-250-252-270-ANZ085-086-088-633-658-670-200500- MARINE OBSERVATIONS STATION/POSITION TIME TEMP WIND PRES WAVE SWELL AIR SEA DIR/SP/G HT/PER HT/PER (UTC) (F) (DEG/KT/KT) (MB) (FT/S) (FT/S) CHESAPEAKE LIGHT NOT AVBL 64 E VA BEACH 0350 79 79 210/ 4/ 6 1015.4 3/ 6 3/ 6 DUCK 0342 80 70 190/ 6/ 8 1014.7 2 E DUCK 0300 78 N/A 1/ 8 OREGON INLET 0342 80 78 230/ 8/ 10 1015.4 13E OREGON INLT 0348 80 N/A 2/ 6 2/ 6 HATTERAS CG 0342 78 80 210/ 5/ 7 1015.2 DIAMOND BUOY 0350 83 83 210/ 12/ 14 1015.3 3/ 9 2/ 9 CAPE LOOKOUT 0400 81 220/ 5/ 6 1015.6 BEAUFORT LAB 0342 80 82 290/ 2/ 4 1015.1 30 SE NEW RVR IN 0308 81 84 250/ 8/ 12 1015.5 30 SE NEW RVR IN 0343 83 N/A 3/ 5 27 SE WRIGHTSVLE 0308 83 84 200/ 8/ 10 1015.4 5 SE WRIGHTSVLE 0308 82 83 200/ 6/ 10 1015.0 225 S CAPE HAT 0350 83 84 180/ 14/ 16 1017.6 4/ 6 3/ 8 41 SE CHARLESTON 0400 84 84 200/ 12/ 16 1015.3 $$

USA.gov is the U.S. government's official web portal to all federal, state and local government web resources and services.